Theta_e
291 292 291 292 291 290 284 281 280 280 278 277 277 272 276 275 275 273 277 281 279 281 284 287 288 288 289 289 290 291 292 292 292 291 290 290 291 292 292 293 293 293 294 295 296 298 299 300 300 301 303 304 304 304 305 305 304 305 306 305 305 305 304 304 304 305 305 306 308 309 310 311 311 311 310 310 310 311 311 312 314 313 314 314 314 314 315
293 293 292 292 290 289 287 283 281 279 280 277 274 276 280 279 275 277 277 280 282 286 286 288 289 290 290 290 291 291 290 291 292 290 290 290 291 291 292 293 293 293 294 295 296 298 298 299 300 302 302 303 303 303 303 303 303 305 306 305 304 303 303 304 304 305 306 308 309 309 310 310 311 312 312 312 311 310 311 311 312 313 313 313 313 314 314
287 292 294 293 291 290 286 284 282 281 278 276 276 274 279 280 276 276 279 280 280 286 289 289 290 290 291 290 289 290 290 291 291 290 289 290 291 292 293 293 293 293 294 295 296 296 297 298 300 302 303 303 303 302 302 302 303 305 305 304 303 303 303 304 304 306 307 307 308 308 309 310 311 312 312 313 312 311 311 311 311 312 313 312 312 313 313
282 287 290 290 290 288 282 279 281 280 278 278 276 280 277 277 277 275 278 277 277 284 288 290 290 289 289 289 289 289 290 290 290 290 290 290 291 292 293 293 293 293 295 295 295 296 297 298 301 302 302 302 302 301 302 303 304 305 305 304 303 303 304 304 304 306 307 307 307 308 309 310 311 312 314 314 313 313 312 311 312 312 312 312 312 313 313
278 284 288 288 285 282 278 280 284 284 277 276 278 280 282 281 278 278 277 279 283 286 290 289 289 288 289 289 289 289 290 290 290 291 290 290 291 291 292 294 295 294 294 295 295 296 296 298 301 303 303 302 301 302 303 304 305 305 304 304 304 304 304 304 304 305 306 307 308 309 310 311 313 315 315 315 314 312 312 312 312 312 312 312 312 312 313
278 283 286 286 280 276 276 285 290 288 285 283 279 278 282 285 285 282 285 286 287 288 289 287 288 288 289 290 291 291 291 290 290 291 291 291 292 292 292 293 293 294 294 294 296 296 297 299 303 304 304 303 302 303 304 304 304 304 304 304 304 304 304 305 306 306 307 307 308 309 311 312 314 315 315 314 313 313 313 313 312 312 312 312 312 312 312
280 282 284 282 276 276 286 291 292 292 291 288 287 284 284 286 287 287 287 288 288 288 289 288 289 290 291 292 292 292 292 291 291 291 292 292 293 293 292 292 293 294 294 293 293 295 297 301 304 303 301 301 301 301 302 303 304 304 304 304 304 304 304 305 306 307 307 307 308 310 311 312 313 314 314 313 312 313 312 312 312 312 312 312 312 312 312
281 281 282 277 278 286 291 291 292 293 290 288 288 286 287 288 288 289 288 289 289 289 289 289 290 292 292 292 294 293 293 293 292 291 292 293 293 292 292 292 294 294 294 294 294 295 300 300 302 301 300 300 300 300 302 303 303 303 303 304 304 304 304 305 306 307 307 307 308 308 309 311 313 313 314 314 313 312 312 311 311 311 311 311 311 311 312
281 277 278 280 284 287 288 288 289 290 287 287 285 279 282 286 289 290 288 289 289 289 289 291 291 291 290 289 291 295 295 295 295 294 294 294 293 294 294 294 296 296 295 294 294 298 296 299 302 301 300 300 299 300 301 302 303 303 303 303 303 304 304 305 306 306 307 306 306 307 308 310 312 311 311 311 313 314 311 310 310 309 309 309 311 311 311
284 282 278 278 277 274 276 287 291 294 293 292 289 286 283 288 290 292 291 289 289 289 290 290 290 290 288 285 287 291 294 294 295 295 295 294 294 295 296 296 295 295 294 294 296 298 296 298 300 300 299 299 298 299 300 300 301 302 302 302 303 304 304 305 305 305 305 305 305 306 307 309 311 310 309 309 309 312 312 311 309 309 310 310 311 311 311
282 281 278 275 274 275 279 288 291 294 295 294 289 284 279 285 289 291 290 289 289 290 290 290 289 285 283 280 285 291 292 293 293 293 293 293 294 295 295 295 294 294 294 295 298 296 296 298 300 299 298 297 298 298 300 300 301 301 302 302 303 303 304 304 305 304 304 305 305 306 306 309 311 308 307 307 307 308 309 311 313 313 312 311 311 312 313
280 278 279 275 278 281 287 290 293 295 295 292 285 276 275 286 289 291 291 291 290 290 289 290 287 284 279 280 285 289 293 294 294 293 293 293 294 295 296 296 295 295 296 294 294 295 296 298 300 299 297 297 299 300 299 299 300 301 302 302 303 303 303 304 304 304 304 304 305 305 306 308 309 306 306 305 304 304 305 307 308 309 310 312 312 312 312
282 283 280 278 280 286 292 293 295 295 294 290 279 275 279 287 289 292 292 291 292 291 291 289 287 288 285 287 291 294 293 293 294 295 294 294 295 295 294 295 297 294 294 293 293 294 297 299 299 300 298 297 298 297 298 297 298 300 302 303 304 303 303 303 303 303 303 304 304 305 307 308 307 304 303 302 301 301 303 304 304 304 303 305 306 309 310
284 281 281 282 280 286 295 295 297 296 291 281 277 283 289 292 293 292 293 292 292 292 292 288 287 291 291 294 293 293 292 293 293 294 294 294 295 295 297 297 295 294 293 293 293 295 297 299 299 298 299 298 297 296 295 296 297 300 301 302 303 303 303 302 303 302 303 303 304 305 306 308 303 301 300 301 300 300 301 302 301 301 301 302 302 303 304
283 280 280 279 277 287 297 296 294 294 285 283 285 291 294 294 293 293 294 292 292 292 291 291 291 291 293 293 293 293 293 293 293 293 293 293 293 294 294 294 295 295 293 293 293 294 298 299 298 298 299 297 296 296 295 296 298 299 300 300 301 302 303 302 302 302 302 302 303 304 305 306 302 299 298 298 298 299 299 299 300 299 299 299 300 299 300
282 282 281 281 284 289 298 295 287 290 291 291 293 294 293 295 294 293 293 293 293 293 294 293 291 292 293 291 292 292 292 292 293 292 292 292 293 293 294 295 295 295 294 294 294 294 295 296 296 297 298 296 296 295 295 297 297 298 299 299 299 300 301 301 301 302 302 302 302 303 304 304 301 298 297 297 297 297 297 298 298 297 297 298 298 297 298
286 283 283 288 292 295 298 296 293 294 296 296 297 295 294 294 295 294 294 295 294 293 294 293 293 291 292 293 293 293 293 293 293 293 293 293 294 294 295 295 295 295 295 295 294 295 294 295 296 297 297 296 295 295 297 298 297 297 298 298 297 298 300 301 301 301 301 301 301 302 303 303 300 298 297 296 295 295 295 295 296 296 296 296 296 296 296
290 290 292 294 296 296 297 297 296 297 297 299 298 297 295 295 295 295 295 295 295 294 294 294 291 293 293 292 292 292 292 292 293 294 294 295 295 295 295 295 296 297 295 294 294 295 294 294 295 297 295 295 294 296 297 297 296 297 297 296 296 297 299 300 300 301 300 300 301 301 302 302 302 300 297 296 295 295 294 295 295 295 295 295 295 295 295
287 283 290 294 295 295 298 299 299 299 298 298 297 297 296 296 296 296 296 296 296 295 294 295 294 294 293 293 293 293 292 293 293 293 294 294 295 294 294 295 297 297 295 294 295 295 294 294 293 295 294 294 294 296 296 296 296 295 295 295 296 295 295 298 299 300 299 300 299 300 300 301 301 301 299 297 295 294 294 293 294 294 294 294 294 294 294
286 285 289 292 295 296 298 297 297 297 298 298 298 298 298 297 297 297 297 295 295 295 295 295 294 294 292 293 293 292 293 294 293 293 293 294 295 296 295 296 295 294 294 294 294 295 295 295 294 295 295 294 295 296 296 296 295 295 295 294 293 293 294 294 296 298 299 297 299 299 299 299 299 299 299 298 296 294 294 294 293 293 294 294 293 293 293
287 289 292 295 295 296 297 298 298 298 299 299 299 299 299 298 297 297 296 296 297 295 296 294 294 294 293 293 293 293 292 293 293 293 294 293 294 296 295 295 294 294 295 295 294 295 296 295 294 294 294 294 295 294 295 296 295 294 294 292 293 293 293 294 295 296 298 299 299 299 298 299 299 299 297 298 298 297 297 295 294 294 294 294 294 294 294
283 287 288 292 289 288 296 298 299 299 300 300 300 298 298 298 297 296 297 296 295 295 295 295 294 294 293 292 293 293 293 294 293 293 293 294 295 295 295 295 293 295 296 295 294 295 296 295 295 295 294 294 294 295 295 295 295 294 294 293 292 292 293 293 294 295 296 296 298 299 298 298 298 299 296 294 295 298 296 294 292 291 291 293 294 294 294
284 287 292 295 293 293 297 299 299 301 300 300 299 299 298 298 296 297 297 295 295 295 295 294 295 293 294 294 292 293 292 293 294 294 294 294 294 295 295 294 294 296 296 297 295 295 295 296 295 295 294 294 294 295 295 295 295 294 293 294 292 291 293 293 293 293 294 295 295 296 297 296 296 296 297 299 294 292 294 294 292 291 291 291 291 291 293
292 294 297 296 294 295 296 299 299 299 300 300 299 299 298 297 297 297 297 297 296 294 294 295 296 296 295 295 294 295 293 293 293 294 294 293 293 294 295 294 295 296 296 294 293 295 294 294 293 293 294 294 294 295 295 295 295 294 293 293 291 290 290 291 293 292 292 292 293 293 293 294 295 293 293 294 297 296 293 292 293 293 292 291 291 291 291
294 298 298 298 296 297 300 300 300 301 301 300 299 298 297 297 297 297 296 294 295 296 295 296 295 297 297 295 295 295 295 295 295 296 295 295 294 294 295 295 295 294 294 294 292 293 293 292 293 294 293 294 294 294 294 294 295 295 294 293 291 291 290 291 291 291 292 292 292 292 292 293 293 292 291 291 291 293 296 294 292 292 292 292 292 292 292
298 298 301 300 299 299 298 298 300 299 299 299 299 298 301 302 298 298 297 296 295 296 297 296 296 296 296 296 295 294 293 294 295 295 293 293 294 294 295 295 295 294 293 293 292 293 292 292 293 293 293 293 292 293 295 294 294 294 294 293 291 291 291 290 290 291 291 292 291 291 291 290 292 291 291 291 290 290 291 292 293 293 293 292 292 292 292
301 301 299 298 298 298 297 298 296 299 299 299 300 300 300 300 304 298 297 297 297 297 297 297 297 297 295 296 295 295 296 295 293 293 294 294 294 295 295 295 294 294 294 293 292 292 292 294 293 293 293 294 292 293 294 294 293 294 294 294 294 292 289 292 290 290 290 290 291 291 289 291 289 289 291 291 289 290 289 290 290 290 290 291 292 292 292
301 300 299 295 292 295 297 297 300 300 299 299 299 298 297 297 296 296 296 295 296 295 295 295 296 295 295 295 294 294 294 294 295 294 294 295 296 295 294 294 294 294 294 293 293 293 294 292 292 292 293 292 292 293 294 293 293 293 293 293 293 292 292 291 292 290 290 289 289 289 290 289 289 288 288 289 289 290 289 289 289 289 288 289 289 291 292
299 300 299 299 298 298 300 300 299 299 298 299 300 298 297 296 295 296 296 296 295 295 295 295 295 296 297 296 294 295 295 295 295 294 295 296 295 294 295 295 294 294 294 293 293 292 292 291 291 291 291 290 291 293 294 292 293 293 293 292 293 292 291 291 291 291 290 290 289 289 288 287 287 289 289 289 287 289 288 288 288 287 288 288 289 290 291
299 300 300 300 300 300 299 298 298 298 298 297 298 298 298 297 295 294 295 295 294 296 296 295 295 295 295 296 294 295 295 295 296 296 296 295 294 294 295 295 294 293 293 292 292 292 292 292 291 291 291 291 292 293 294 292 292 294 293 292 293 292 292 291 290 289 289 289 289 287 287 286 288 286 286 288 288 287 288 287 287 286 288 288 289 287 288
299 299 300 301 301 300 300 298 298 298 298 297 297 297 297 297 297 295 295 295 295 296 295 296 296 296 295 296 295 295 296 295 295 294 293 293 293 295 295 294 294 292 293 294 291 292 292 292 291 291 290 290 291 292 292 293 293 292 292 291 292 290 289 287 287 289 288 288 288 288 288 288 287 287 285 286 287 287 287 287 286 286 285 286 287 287 287
298 299 302 301 300 298 298 298 297 297 298 297 296 296 297 297 295 295 295 295 296 296 296 295 295 296 296 295 295 295 295 294 293 293 293 293 294 295 294 295 295 292 293 292 290 292 293 291 291 292 291 292 292 291 291 292 293 291 291 290 291 293 290 288 289 288 288 288 288 287 287 288 287 286 286 286 287 287 286 286 286 285 285 286 286 287 286
298 297 297 298 298 297 298 298 298 297 297 297 298 298 297 298 299 298 297 296 296 295 296 296 296 296 296 296 296 295 294 293 293 293 293 293 294 294 294 294 294 293 292 292 293 293 293 293 294 292 292 293 292 292 292 291 291 292 290 291 292 291 289 289 288 288 288 286 287 287 287 288 287 287 286 286 286 285 286 287 285 285 285 285 286 286 287
299 298 299 299 299 298 298 298 299 298 299 300 299 298 298 298 298 297 296 296 297 296 296 297 297 297 297 296 295 294 293 292 292 293 294 293 294 294 294 293 293 294 294 293 292 291 292 293 292 293 294 292 291 292 292 291 290 291 291 290 290 290 290 290 289 289 289 288 287 288 288 287 289 287 286 286 287 285 286 286 285 284 285 285 285 285 288
301 300 300 301 300 300 300 300 299 298 298 298 298 298 299 298 297 297 297 298 298 298 298 298 297 297 297 296 295 295 294 294 293 293 293 293 294 294 293 293 292 292 292 292 292 292 292 293 294 294 293 292 291 292 293 291 290 290 291 290 289 289 289 289 288 290 290 291 288 287 289 288 288 287 286 286 287 286 285 286 285 285 284 285 285 285 286
301 300 299 300 300 300 299 299 300 299 299 299 299 299 298 297 297 297 296 297 298 298 298 298 298 298 297 296 296 295 295 295 293 293 292 293 294 294 293 292 292 291 291 291 290 292 292 294 290 289 293 291 289 289 291 291 291 292 290 291 289 289 288 288 288 288 288 289 290 288 287 287 287 286 286 286 286 286 285 286 285 285 284 285 284 285 285
301 302 302 302 301 300 300 299 300 300 300 300 300 299 299 298 299 299 298 298 298 299 299 298 297 297 297 297 298 297 296 295 294 294 294 294 293 294 293 292 291 291 291 290 291 294 294 295 289 287 290 290 289 289 290 288 292 289 289 290 289 288 288 288 288 288 289 287 287 288 286 286 287 286 285 286 288 287 286 286 286 285 285 284 284 284 284
301 302 301 301 301 300 300 300 301 301 300 299 299 298 299 299 299 298 298 300 299 299 298 299 299 299 298 297 297 298 298 298 298 297 296 295 294 294 293 292 292 291 291 292 290 295 294 293 287 288 291 290 290 291 291 286 287 289 288 288 288 287 288 288 288 287 287 288 287 287 287 287 287 285 285 285 285 285 285 285 285 286 285 285 284 284 283
303 301 300 300 301 300 299 300 301 301 301 300 300 300 300 300 299 299 298 299 299 299 298 299 298 297 297 297 298 298 299 300 300 300 298 297 296 295 294 294 294 294 294 292 295 296 295 291 291 291 292 291 291 291 290 287 286 289 288 289 289 287 288 287 287 287 287 288 287 287 286 286 285 285 285 286 284 284 284 285 284 286 285 285 285 284 284
302 301 302 301 300 300 300 300 301 301 302 303 301 300 299 299 299 299 298 298 298 297 299 299 298 298 298 298 298 299 300 301 302 301 300 298 295 295 294 294 294 295 293 291 296 296 293 289 291 293 293 292 291 291 291 289 287 287 289 288 288 287 287 287 287 287 288 288 289 286 286 286 286 285 285 284 284 284 284 284 285 284 285 284 284 283 283
301 301 302 301 300 300 300 300 301 301 300 300 301 301 301 301 300 299 299 299 299 298 298 298 299 298 299 300 300 300 301 301 302 302 300 298 295 294 294 295 297 297 294 294 296 295 291 290 293 293 293 293 292 290 291 288 289 289 288 288 288 287 287 287 287 287 288 288 287 288 288 289 286 285 285 285 286 284 284 284 284 284 285 285 284 283 283
302 303 302 301 300 300 299 300 300 300 300 301 300 301 301 300 300 300 299 298 299 299 299 299 296 300 300 300 300 300 300 300 301 301 300 298 297 296 294 295 297 296 292 291 291 292 292 292 293 291 294 293 291 288 289 290 290 289 289 288 287 287 287 287 287 287 288 288 288 289 288 288 287 287 285 286 285 284 284 284 284 284 284 284 284 284 283
303 303 302 301 300 299 300 300 301 301 300 300 301 301 301 300 300 300 300 300 300 299 299 299 297 295 295 297 299 299 300 299 300 301 301 301 301 300 298 297 295 296 291 291 293 293 293 293 294 294 291 290 290 288 287 291 290 290 289 288 288 287 287 287 287 287 287 288 289 289 288 288 289 287 287 286 286 287 284 285 285 285 284 285 285 283 284
303 302 301 302 301 301 301 301 301 301 301 300 300 301 301 300 300 300 300 299 298 298 298 298 298 298 297 298 298 297 297 297 297 298 299 299 300 299 299 298 297 296 290 292 293 293 293 294 294 293 289 288 288 287 289 290 291 290 291 288 289 288 288 289 287 288 287 288 288 288 288 288 288 288 288 287 287 286 286 286 286 286 285 285 285 285 285
303 302 302 302 302 302 301 301 302 302 301 300 300 300 300 300 300 300 300 298 298 297 296 297 298 298 298 298 298 298 298 299 299 299 297 297 297 297 297 294 293 291 290 290 294 294 294 294 293 290 288 287 287 287 289 289 289 289 290 289 289 289 288 288 288 288 287 287 287 288 288 288 289 288 288 288 287 288 288 287 287 287 286 285 284 284 284
302 303 302 297 302 302 302 302 302 301 300 300 300 299 299 299 300 299 299 298 297 297 298 299 298 298 298 299 299 300 300 299 299 299 300 300 299 298 296 293 293 290 289 289 293 294 294 291 290 289 288 287 286 287 289 289 289 289 290 291 291 291 290 290 288 287 287 287 288 288 288 288 288 288 288 288 289 288 288 287 286 286 286 286 286 285 285
302 302 302 302 302 303 302 301 301 301 300 299 299 298 298 299 299 299 298 298 298 299 298 299 299 299 299 299 299 298 297 297 297 298 299 300 299 297 294 291 292 289 288 291 293 294 292 290 290 288 287 287 286 289 290 290 291 291 291 291 291 291 290 290 289 288 289 288 288 288 287 288 288 288 287 287 288 288 287 287 286 286 286 285 285 285 286
302 301 302 302 303 302 301 300 300 299 299 300 299 299 299 299 299 298 298 298 298 297 297 296 296 297 297 299 299 299 298 296 295 295 297 299 299 298 296 294 294 289 288 289 291 290 289 290 289 288 287 287 289 291 291 292 292 292 292 292 291 290 289 288 288 287 287 287 287 288 287 289 289 288 287 287 288 288 287 287 286 286 285 285 286 286 287
301 300 300 300 301 301 300 299 298 297 298 298 299 299 300 299 299 298 297 296 297 295 295 296 297 298 298 296 297 297 298 297 298 297 296 297 297 297 298 294 290 289 289 292 294 295 291 289 289 288 287 287 290 291 291 291 291 290 290 290 289 288 287 286 286 287 286 287 287 287 288 288 289 289 289 289 288 288 287 287 287 286 287 286 286 285 286
300 300 300 300 300 301 301 299 298 297 298 299 299 300 299 299 297 297 296 295 296 294 295 296 296 297 296 296 296 297 299 299 299 299 299 299 300 298 296 297 295 291 291 295 296 296 292 289 288 288 288 290 291 290 290 291 290 289 290 288 287 287 287 287 286 286 287 286 287 287 288 288 288 288 289 289 288 289 288 288 288 288 287 287 288 287 286
298 298 299 298 299 300 301 300 300 299 299 299 300 299 298 297 297 297 296 296 295 295 295 296 295 295 294 294 295 296 297 298 297 295 298 299 299 296 295 296 294 291 293 293 294 294 294 293 292 289 288 290 290 290 289 289 288 287 287 287 288 288 287 287 286 287 287 287 287 287 288 288 288 288 288 288 288 288 288 288 288 289 289 289 289 289 288
301 301 301 300 301 301 301 301 302 302 300 299 299 298 298 297 297 296 295 291 294 295 294 293 295 294 293 293 293 294 295 295 295 295 295 294 295 297 295 293 297 294 294 294 295 296 295 293 288 288 288 288 287 288 287 287 287 287 288 288 288 288 287 286 286 286 287 288 287 287 286 287 286 286 286 287 287 286 286 287 287 287 288 288 288 288 288
Wind_Speed
4 4 5 5 1 3 4 6 7 7 6 6 6 5 3 8 2 4 2 4 2 5 5 7 7 3 4 3 4 2 1 1 1 3 5 4 3 1 2 1 2 3 4 4 4 4 5 5 5 5 7 7 6 5 5 6 6 7 7 5 6 7 7 7 8 8 8 7 7 8 8 9 9 9 8 8 8 9 9 8 8 8 7 7 8 8 7
4 5 5 6 5 2 1 1 4 3 8 9 6 3 2 7 7 5 3 4 7 7 7 8 6 4 5 3 1 2 3 3 2 4 5 4 2 1 1 1 2 2 3 4 4 5 5 6 5 6 7 7 7 7 6 6 6 7 7 6 5 6 7 7 8 7 8 8 8 9 10 10 11 10 10 9 8 8 9 9 9 8 8 8 8 8 8
3 5 4 3 1 6 2 1 1 2 3 3 3 2 1 3 6 3 1 1 6 7 7 5 4 3 0 1 1 4 3 3 4 4 4 3 1 1 1 1 1 2 4 3 4 4 5 6 5 6 6 6 6 6 6 6 7 7 7 7 6 5 7 6 7 8 8 8 9 10 10 10 11 11 12 10 8 8 8 8 9 9 8 8 8 8 8
5 4 3 4 4 5 5 0 2 4 6 3 3 2 7 6 6 1 1 1 5 8 0 3 1 1 2 3 5 4 3 2 4 4 3 2 1 1 0 0 1 3 3 3 4 5 5 6 5 6 6 6 6 7 7 8 8 8 7 7 8 7 6 7 8 9 8 9 10 11 11 12 12 12 11 10 9 9 8 8 8 8 8 9 8 8 7
2 8 3 2 2 2 2 3 9 11 3 1 1 3 3 6 6 5 2 6 6 3 1 1 0 0 0 2 4 4 2 2 3 2 2 1 2 2 1 1 1 3 3 3 4 5 4 5 5 6 6 6 7 8 8 8 7 7 7 7 8 8 8 8 9 9 10 10 11 11 11 12 12 11 10 9 8 8 9 9 8 8 9 9 9 9 8
2 4 4 0 3 4 3 5 8 12 8 10 7 3 7 7 7 5 7 7 2 0 0 4 2 2 3 4 3 4 6 4 2 1 1 2 2 1 2 2 3 3 2 3 4 4 4 5 5 5 5 6 7 7 7 8 7 7 8 8 8 8 9 9 9 10 10 10 10 11 11 12 12 12 10 8 7 7 7 7 8 9 9 10 9 9 9
2 2 3 5 4 4 4 1 6 12 8 10 11 7 4 4 7 3 4 6 5 5 4 6 4 4 3 3 5 3 3 4 3 2 1 1 1 2 3 2 3 2 3 4 4 5 5 5 4 4 6 5 6 6 7 7 7 7 8 7 8 8 9 9 9 9 10 9 10 11 11 11 11 11 11 9 8 5 6 7 7 8 9 9 9 9 9
1 2 1 0 2 2 2 3 2 2 5 1 1 4 6 6 9 11 8 8 5 4 4 3 5 8 6 3 2 4 3 3 3 3 2 1 3 3 4 3 0 2 4 4 4 5 5 5 4 3 5 5 5 7 7 6 6 7 7 7 7 8 8 8 9 9 9 9 11 11 11 11 11 11 11 10 9 8 7 6 5 5 6 7 8 9 9
2 2 2 7 2 1 1 1 1 4 4 5 6 3 3 4 4 8 5 6 5 3 4 6 5 4 3 3 1 1 2 1 1 1 1 3 4 4 3 3 0 1 2 3 4 4 5 6 4 4 5 5 5 6 7 6 6 7 7 7 8 8 8 9 10 10 9 10 11 11 12 12 11 11 11 12 10 8 7 6 6 6 6 6 6 7 8
1 2 2 3 2 2 5 9 4 3 3 7 5 3 3 3 3 6 7 5 5 6 5 6 5 4 2 1 1 2 2 1 0 1 2 2 4 4 3 1 2 3 3 3 4 4 5 6 4 4 4 5 5 6 7 6 6 7 7 8 8 8 8 9 9 10 10 10 10 10 10 11 11 11 11 9 10 10 8 7 6 6 6 7 6 6 7
2 1 1 2 2 5 6 7 5 3 5 9 4 3 3 4 3 5 8 7 7 8 6 4 3 2 1 4 6 5 3 3 3 3 3 4 4 4 3 2 3 1 2 2 3 5 7 6 6 4 5 4 5 6 7 7 6 6 7 8 8 9 8 9 9 9 9 9 9 9 9 10 9 11 10 10 10 10 9 9 8 6 5 5 6 6 6
3 3 2 3 3 2 2 4 2 4 5 6 5 2 4 3 2 6 5 6 6 5 5 5 5 5 2 5 6 6 7 6 4 4 5 5 5 4 2 0 1 1 2 2 5 6 7 7 5 4 4 4 5 5 7 6 6 6 6 6 6 7 7 7 7 8 8 9 9 8 9 8 8 10 10 10 11 10 10 8 8 9 9 7 6 6 5
2 4 3 2 4 3 3 4 4 4 3 4 2 4 4 3 3 3 6 6 7 6 5 4 3 6 5 5 6 5 5 3 2 1 3 4 6 6 4 2 0 1 2 3 4 5 4 5 5 3 3 3 5 5 5 6 7 7 5 5 6 6 7 7 7 8 7 8 9 9 8 7 9 9 9 9 9 10 10 9 9 10 10 9 10 10 9
5 5 4 6 3 5 5 2 6 4 3 1 4 5 4 5 4 4 6 6 6 6 7 4 3 5 3 2 4 5 5 6 4 5 4 3 1 1 3 5 4 0 2 4 4 6 5 5 6 3 2 4 5 5 5 6 6 6 5 4 5 6 6 7 7 7 7 8 7 7 8 7 9 8 8 8 8 9 8 9 11 11 11 10 9 9 9
2 1 1 2 2 3 5 5 2 1 2 6 5 2 1 2 2 3 4 4 4 5 3 3 5 3 3 5 6 6 5 5 5 5 4 4 4 3 2 2 1 2 3 2 3 4 5 4 5 3 1 4 5 5 5 6 5 5 5 4 5 5 6 7 7 7 7 8 8 7 7 8 8 8 8 8 9 9 10 10 10 10 11 10 10 10 9
3 3 2 3 6 6 7 9 5 5 8 5 6 5 2 3 4 4 2 3 5 6 7 6 4 5 6 4 4 4 4 4 4 4 4 4 3 1 1 1 3 4 2 0 1 5 4 4 4 5 1 3 5 5 7 5 4 4 5 4 4 4 5 6 7 7 7 7 8 8 8 7 7 7 9 8 8 9 9 9 9 9 9 9 9 9 10
3 3 6 6 4 7 10 9 6 6 6 5 8 5 6 4 2 2 5 5 4 7 8 6 7 4 5 6 6 6 5 5 5 5 5 6 4 3 2 1 2 2 2 1 1 4 4 4 4 4 2 2 5 6 7 5 4 4 4 5 4 4 5 6 6 6 6 6 7 7 7 6 5 6 7 8 8 8 8 8 8 8 8 8 8 8 9
2 2 5 2 1 2 6 6 3 6 5 2 5 6 4 3 4 6 7 5 6 5 6 8 4 6 6 5 5 4 5 5 4 3 3 3 3 2 1 1 1 2 1 1 1 1 4 4 4 3 4 2 3 5 5 5 3 2 3 4 4 4 4 4 5 5 6 6 5 6 6 5 5 3 4 7 7 7 7 8 8 8 8 9 9 8 7
1 2 1 3 6 4 7 8 1 1 5 6 5 5 4 4 4 4 6 9 7 8 6 7 7 6 6 6 5 5 4 5 5 4 5 5 4 4 3 2 1 1 1 1 1 1 3 4 4 3 4 4 3 4 4 4 3 2 4 4 4 4 4 4 3 4 5 5 5 5 5 5 4 4 4 4 6 7 7 7 8 7 7 8 9 9 8
3 4 5 5 4 3 3 7 6 4 4 4 4 5 5 5 5 6 7 5 5 5 6 7 7 7 5 6 5 5 5 6 5 5 5 5 3 3 3 3 2 1 1 1 1 0 2 4 4 4 3 4 4 4 4 4 2 3 4 4 4 4 4 4 3 2 3 5 5 4 5 5 5 5 5 4 5 6 7 7 7 8 6 8 9 9 9
5 4 2 1 4 2 2 3 3 6 8 6 5 4 5 4 3 3 5 6 8 6 7 6 7 6 5 6 7 5 4 5 5 5 5 4 4 4 4 3 2 2 0 0 2 1 1 3 3 4 3 4 4 4 4 3 2 4 4 4 4 4 5 5 5 3 3 2 3 4 4 4 4 3 2 4 3 2 2 2 4 6 6 5 6 6 7
3 5 3 4 2 1 1 4 6 7 7 8 7 5 4 4 3 5 7 4 2 5 7 8 7 7 5 4 5 5 5 5 5 4 4 4 4 4 4 4 3 2 0 1 0 2 1 2 2 3 4 4 4 3 3 3 2 3 3 4 4 5 4 5 5 6 5 4 4 3 4 5 5 5 1 4 2 0 1 4 4 3 3 5 4 5 7
5 6 9 5 5 6 7 8 8 9 7 6 7 7 5 4 4 7 8 6 2 3 3 4 7 5 6 5 4 4 4 4 5 6 6 5 4 4 4 4 1 1 0 0 1 1 1 1 2 1 2 3 3 3 3 3 2 2 1 3 3 4 4 5 5 5 5 6 5 4 4 4 5 5 6 5 2 6 4 4 4 8 10 9 8 7 6
8 7 7 6 5 6 6 7 8 8 7 8 8 5 5 5 6 7 9 9 8 4 4 2 5 8 6 6 6 6 5 4 4 5 5 5 5 3 5 5 5 3 2 0 1 2 0 1 1 1 0 2 3 3 3 2 2 2 1 1 3 4 4 4 5 4 4 4 5 6 6 5 5 5 5 5 7 3 5 7 7 7 9 11 11 11 9
5 4 5 7 6 5 7 10 8 9 7 7 7 6 6 5 4 6 7 5 6 9 7 7 5 6 9 7 6 7 6 5 6 7 6 5 5 4 6 5 5 4 3 3 3 3 1 1 1 1 1 2 3 3 3 3 2 4 4 2 4 5 4 5 4 4 5 5 5 4 5 5 6 5 6 6 6 6 6 3 5 7 9 11 11 11 12
6 4 5 5 4 5 2 2 1 2 5 5 5 5 5 7 7 7 8 8 7 8 9 7 7 6 6 7 5 5 4 5 6 6 5 5 4 2 5 7 6 5 4 4 4 4 2 1 1 0 1 2 3 2 1 3 3 4 4 4 4 4 4 4 5 4 4 5 5 6 4 4 4 5 5 4 5 5 5 6 5 4 5 11 12 11 12
4 4 4 2 1 1 4 8 5 5 7 6 9 8 7 7 9 7 7 9 10 8 9 9 9 8 5 5 6 5 6 5 3 5 5 5 5 6 6 5 5 5 5 4 4 4 4 1 2 0 1 1 2 1 2 1 2 4 4 4 4 6 7 6 4 5 2 4 5 5 4 4 4 5 5 5 5 5 5 5 5 6 7 8 10 13 11
5 5 8 6 6 6 5 5 7 8 6 7 7 7 5 5 6 5 5 3 2 4 4 5 6 5 5 4 4 3 2 5 7 6 5 6 6 4 4 6 6 6 5 4 4 5 4 4 2 0 3 2 1 2 2 1 2 2 3 3 4 4 4 5 5 5 2 2 4 3 3 4 4 4 4 4 5 6 5 3 4 5 5 6 5 8 11
6 7 7 6 7 8 7 6 5 5 5 4 6 6 7 7 6 7 7 8 7 5 4 4 3 6 7 5 5 5 6 7 6 6 8 7 5 4 6 7 6 5 5 4 4 5 4 4 3 1 3 2 1 3 1 2 1 2 3 3 4 4 6 5 4 4 3 1 3 4 3 3 4 4 5 6 5 6 5 5 4 5 5 5 5 6 6
8 6 7 6 3 8 9 7 8 7 7 7 8 7 8 9 7 6 8 7 5 7 7 6 5 5 4 6 5 6 7 8 9 8 6 5 5 5 6 6 4 3 1 1 4 5 5 5 4 4 3 3 2 2 1 1 1 0 1 3 3 3 4 4 4 4 3 3 3 5 4 3 4 3 4 5 5 4 5 4 3 4 6 6 6 6 7
7 5 5 4 8 9 12 10 9 10 10 8 9 8 6 6 8 7 7 7 6 7 5 6 7 7 5 7 7 7 7 7 7 6 4 4 4 6 6 5 6 6 6 6 5 5 6 5 4 4 4 4 2 1 2 1 1 3 3 3 3 3 4 7 5 3 2 2 3 4 5 4 3 4 3 3 5 5 5 4 4 3 4 5 6 6 6
9 7 7 8 10 9 8 7 6 7 9 7 8 10 10 9 7 9 8 7 8 8 7 6 6 8 8 7 6 7 6 5 4 3 4 4 5 6 6 7 7 7 6 5 4 5 6 5 5 6 4 4 3 3 3 2 1 2 4 4 3 5 5 5 4 4 1 1 2 3 3 5 4 4 2 2 4 4 3 4 3 2 2 4 5 5 5
6 3 3 6 6 7 8 7 8 8 8 8 10 10 9 10 10 9 8 7 6 5 7 8 7 7 7 6 5 5 4 2 2 2 3 5 5 5 6 6 6 5 5 6 6 6 6 6 7 5 4 4 4 4 4 3 2 1 2 3 4 3 4 4 3 4 2 4 3 4 3 4 3 2 3 1 2 3 3 4 3 3 3 2 2 3 3
7 9 10 11 12 11 11 10 8 8 10 11 10 8 7 9 9 7 5 4 6 6 8 8 8 7 6 6 5 5 3 4 4 4 6 5 6 6 6 6 5 6 7 6 5 5 5 6 5 5 5 4 4 4 4 4 3 2 1 2 3 3 4 5 4 3 1 2 3 5 3 3 5 3 3 1 1 2 3 3 3 2 2 2 3 3 4
8 9 9 11 9 10 11 10 9 8 9 8 7 8 8 7 7 7 7 8 8 9 8 8 7 6 6 5 5 5 6 6 7 7 6 7 6 7 5 4 4 4 4 4 5 5 5 5 6 6 5 4 4 4 4 4 3 2 1 3 3 1 2 3 3 5 1 1 1 2 5 4 4 3 3 1 0 1 3 3 3 3 1 1 2 3 3
7 6 5 7 9 9 8 8 8 8 9 10 10 7 6 6 5 5 8 8 7 6 6 7 7 6 6 6 6 6 6 6 6 6 6 7 6 5 5 6 6 5 5 5 4 4 4 6 9 9 6 5 4 4 4 4 4 3 3 3 2 2 2 2 3 5 4 2 1 2 3 4 3 1 1 2 0 0 1 3 3 2 1 1 2 4 2
7 8 8 8 9 9 8 7 7 8 9 10 10 9 7 7 9 9 8 6 6 7 7 6 6 7 7 7 7 7 6 6 6 7 7 6 5 6 7 6 5 5 6 5 5 4 6 7 10 11 7 4 4 4 4 8 6 5 4 4 2 2 1 2 3 3 6 4 3 3 4 3 3 3 2 2 0 1 1 1 1 1 1 1 2 3 2
5 8 8 8 8 9 9 8 7 9 8 7 5 6 10 9 8 8 8 8 8 7 6 6 8 9 7 5 5 6 6 6 6 7 6 6 6 7 6 6 7 6 7 7 4 7 7 9 11 8 5 5 5 5 6 10 9 6 4 4 3 3 2 2 3 4 4 6 4 3 4 4 3 3 3 3 2 3 2 2 1 0 0 1 2 2 4
1 1 3 4 5 6 5 5 7 8 11 11 8 8 7 9 7 6 6 7 7 6 5 6 5 4 5 5 6 6 6 6 6 5 5 6 7 8 9 9 9 10 9 6 6 8 8 8 7 7 7 7 6 5 6 9 8 6 5 5 4 4 3 3 3 4 6 6 4 3 3 4 3 3 5 4 3 3 3 3 2 1 1 0 1 3 3
6 3 4 4 5 5 7 8 8 9 8 10 11 9 7 8 7 7 6 5 4 6 6 5 4 5 4 4 5 6 6 6 5 4 5 4 5 6 6 5 6 7 5 6 7 7 10 12 9 7 7 7 6 7 6 8 8 6 5 5 5 4 3 3 3 3 4 4 7 5 4 4 5 4 5 4 4 4 4 4 4 3 2 2 1 2 3
5 4 3 4 5 5 8 9 9 8 7 6 7 7 7 8 6 6 5 5 4 5 6 6 6 6 6 7 7 8 7 6 5 6 5 4 5 6 6 8 7 7 6 7 7 8 10 10 9 8 8 7 7 7 6 8 8 7 6 6 5 4 4 3 4 4 4 5 5 6 7 6 5 4 5 5 6 4 4 5 5 4 5 4 3 2 3
3 2 2 3 4 7 7 6 5 5 4 6 7 7 7 7 7 7 6 4 5 5 5 6 7 7 6 7 7 6 6 6 6 5 5 7 7 6 7 8 6 7 9 10 9 7 7 8 8 7 7 7 7 9 10 7 7 7 6 6 5 4 4 4 4 5 4 4 6 6 7 6 5 6 6 6 5 5 4 5 5 6 5 5 5 4 4
0 2 4 5 5 4 5 6 7 7 6 5 5 5 5 4 4 4 4 4 4 2 1 1 1 2 3 3 3 4 6 5 6 7 6 6 6 7 8 7 5 6 8 7 7 6 7 8 8 8 9 8 8 10 10 7 6 7 7 5 5 5 5 5 6 5 4 4 6 5 6 6 6 7 7 7 7 7 5 6 7 7 7 6 7 5 5
1 2 4 7 7 7 7 7 6 6 6 4 3 5 5 4 4 4 4 4 3 3 2 1 0 1 3 3 3 4 6 6 6 6 6 6 3 3 4 6 6 6 9 7 7 7 7 8 9 12 13 12 11 9 7 6 5 5 6 5 5 5 5 5 5 5 5 5 5 6 6 6 7 7 7 7 7 7 7 7 7 7 7 7 7 7 6
5 5 4 5 7 8 7 7 8 9 7 6 5 5 6 6 5 5 6 5 4 2 1 1 1 2 3 3 4 6 6 6 7 6 5 5 5 5 3 5 5 5 7 8 7 7 7 8 12 14 10 10 10 9 6 5 6 6 6 6 6 5 5 5 5 6 6 5 6 6 5 6 6 7 7 7 7 7 7 7 8 7 7 7 7 7 7
5 6 6 5 5 5 6 7 6 7 7 7 6 5 5 6 6 5 5 5 4 2 2 2 2 3 3 4 4 5 4 5 4 5 7 7 8 6 4 6 5 5 8 9 6 7 7 8 5 3 5 8 8 7 6 6 5 5 6 5 5 5 5 5 5 6 6 6 6 6 7 6 6 7 7 7 7 8 8 8 7 7 7 7 8 8 7
7 5 4 4 3 1 4 5 6 7 6 6 6 5 4 5 6 5 4 4 3 2 1 1 2 3 3 3 3 3 4 5 6 4 5 5 4 3 3 5 5 5 5 5 6 5 3 2 4 7 7 8 8 6 6 5 5 5 5 5 5 5 5 5 5 5 6 6 7 6 6 6 6 7 7 7 7 7 7 7 7 7 7 7 7 7 7
6 6 5 6 5 3 3 4 5 5 6 9 8 6 5 5 5 4 3 3 2 1 1 2 2 3 2 0 2 2 3 4 1 4 2 2 2 3 3 4 6 7 7 5 5 6 7 7 7 8 9 8 6 4 4 5 5 5 5 5 5 5 5 5 5 5 6 6 6 5 6 6 7 7 7 6 7 7 7 6 7 6 6 7 7 7 7
5 6 4 4 5 4 3 4 5 5 4 3 6 6 6 6 4 4 3 3 1 2 2 2 2 3 1 1 1 2 1 3 2 1 1 3 4 4 4 5 6 7 6 5 4 3 6 8 8 8 6 6 5 5 4 5 4 4 5 4 4 4 4 5 6 5 5 6 6 6 6 6 6 6 7 7 7 6 6 6 7 7 7 7 7 7 7
4 5 4 3 3 2 2 2 1 4 5 6 5 6 5 5 6 3 3 2 1 1 2 3 2 1 0 1 2 1 2 3 2 2 2 2 3 2 2 2 3 5 6 5 5 5 3 6 6 3 3 2 1 1 2 3 3 4 4 4 4 5 6 6 6 6 6 6 6 5 6 6 6 7 7 7 7 7 7 7 6 8 12 9 7 7 7
4 5 5 4 4 3 2 1 3 3 2 3 6 6 5 6 6 5 4 2 2 5 4 1 0 0 1 2 2 1 2 2 2 3 2 2 3 2 1 2 3 2 1 1 2 2 3 2 2 3 2 2 2 2 2 3 4 4 5 5 6 6 6 6 4 5 6 5 4 4 6 6 5 6 6 6 7 7 7 7 8 7 7 7 7 6 7
4 4 3 4 6 6 6 5 6 4 2 0 2 4 4 6 5 4 0 1 4 6 6 3 1 1 1 1 3 3 3 4 4 2 2 2 3 5 5 5 4 4 3 3 3 3 3 4 4 4 4 2 2 3 4 5 5 5 5 5 5 6 6 6 5 6 5 6 5 5 6 5 5 6 6 6 6 6 6 7 7 8 8 7 7 7 7
Wind_Direction
264 251 265 273 249 209 202 191 167 192 186 134 164 229 192 126 153 209 235 179 216 250 241 260 259 240 234 214 217 220 212 134 112 70 66 81 86 54 38 356 6 353 321 305 327 337 337 328 326 331 338 331 329 326 324 324 319 315 312 304 309 314 313 308 302 298 295 293 287 287 289 288 283 275 266 260 261 263 262 262 256 253 254 255 259 261 258
287 291 295 302 289 230 94 144 199 176 154 192 172 212 183 169 195 211 205 197 244 247 256 253 255 219 217 227 245 44 95 123 125 81 70 92 113 101 65 8 347 309 296 302 331 334 327 324 320 336 336 334 334 332 328 320 318 314 318 315 312 312 308 304 300 297 298 300 306 306 301 297 294 289 281 270 259 256 255 255 257 254 253 254 256 256 258
289 283 300 347 345 166 177 51 98 115 117 118 189 129 319 321 298 275 203 278 285 264 220 244 255 270 118 53 77 160 169 143 88 70 72 99 141 176 29 341 323 295 292 306 329 332 321 320 319 333 331 329 324 326 318 321 321 320 323 324 318 309 307 305 306 310 315 317 312 306 301 296 294 290 285 278 265 256 253 252 253 257 254 253 252 252 252
305 297 12 356 42 58 89 343 285 151 133 170 230 186 211 153 210 102 93 305 273 273 168 222 280 10 169 150 133 132 125 110 79 66 56 105 162 177 175 269 283 291 287 323 321 323 322 318 317 329 333 325 321 321 324 327 327 326 330 329 326 321 321 321 318 320 318 313 311 307 305 301 297 293 286 278 267 258 255 253 252 252 257 255 254 251 250
260 268 25 29 60 46 354 269 226 191 209 209 293 281 238 220 141 124 171 229 222 233 251 106 336 341 341 111 157 138 135 114 103 81 76 175 204 191 214 227 248 263 282 304 303 311 320 314 307 321 325 325 322 320 325 326 325 333 334 335 332 327 325 323 321 322 322 316 310 307 307 304 302 299 295 281 266 255 247 247 250 248 249 253 253 251 247
248 283 325 62 34 335 244 234 177 156 184 192 171 228 221 211 164 197 189 215 220 132 216 146 195 189 176 157 199 179 143 120 84 44 103 196 186 203 224 226 233 260 309 313 305 299 302 297 287 303 321 320 314 314 315 319 328 333 334 332 331 326 324 325 326 323 315 312 312 313 313 312 311 310 312 302 273 253 250 246 242 246 247 248 250 249 247
268 298 10 11 293 236 250 331 165 178 181 166 187 224 239 220 224 273 289 271 269 229 210 188 188 177 150 171 155 179 153 135 137 110 100 178 171 190 195 229 256 299 332 317 307 318 320 308 291 316 319 314 313 316 319 321 327 333 333 329 328 329 325 323 323 321 319 317 319 320 318 318 320 325 322 319 312 283 248 237 232 233 236 241 245 246 248
32 41 43 59 240 254 318 -0 80 82 75 125 67 312 283 225 205 208 228 248 252 250 227 232 186 155 167 165 176 159 176 159 131 100 100 178 190 181 197 196 220 6 342 304 295 298 306 308 296 317 308 311 322 317 319 315 326 332 331 329 328 330 327 326 326 327 326 330 329 325 324 323 330 338 339 328 320 315 302 280 256 235 230 224 234 240 244
212 202 168 221 312 10 358 348 218 170 174 170 164 201 272 234 200 176 207 238 253 261 230 203 171 151 99 68 19 299 191 182 167 154 171 178 189 166 183 188 123 6 310 288 287 294 315 309 303 307 305 318 322 322 320 318 326 337 337 337 337 334 335 336 338 335 338 338 331 326 329 327 338 346 351 347 340 328 314 307 290 272 254 235 226 229 236
131 180 312 344 2 284 270 235 265 249 185 153 163 104 294 295 247 187 178 205 217 207 203 205 171 139 82 41 256 264 272 283 248 279 233 163 121 121 161 227 17 15 319 300 305 325 323 321 316 290 310 323 330 325 318 317 324 344 346 347 343 339 344 345 341 343 341 336 328 328 328 327 340 347 351 354 354 345 337 317 302 286 277 272 262 244 241
80 84 178 222 195 247 213 227 229 224 147 129 120 65 305 264 186 194 169 185 193 182 172 199 100 73 206 253 231 250 239 256 228 128 75 81 110 141 146 94 59 332 284 277 346 337 343 336 324 302 314 329 334 323 318 318 319 348 351 352 351 347 346 344 347 345 338 332 329 327 326 324 346 352 353 351 348 350 352 350 339 311 282 274 281 279 268
200 146 166 252 211 237 275 226 237 194 136 93 62 355 276 257 230 197 154 171 190 207 197 157 131 133 204 236 243 221 202 197 179 139 111 98 110 127 164 169 162 213 260 18 11 350 348 334 319 295 313 331 326 322 318 317 326 351 347 353 344 341 342 344 348 345 336 336 331 329 326 329 2 359 352 354 356 352 351 356 357 6 2 339 310 290 292
212 171 248 329 307 278 243 205 190 160 134 78 97 231 234 243 232 207 170 181 193 182 183 160 164 227 188 194 199 176 181 136 111 110 143 144 151 156 156 144 151 30 324 35 350 340 346 330 323 293 317 340 322 315 321 327 327 338 333 336 343 341 344 350 349 344 337 337 332 328 338 350 18 2 358 355 353 357 356 357 5 11 11 7 4 358 348
207 195 189 226 231 236 188 217 152 164 92 251 216 234 196 160 215 218 185 188 206 173 173 179 182 207 233 168 139 153 180 160 163 142 142 122 100 192 163 159 140 76 357 23 347 347 353 345 328 296 313 321 315 310 332 326 316 321 328 336 335 343 351 352 348 346 343 343 337 344 351 16 21 6 357 357 358 1 2 5 10 11 8 8 4 356 355
81 105 204 327 282 254 165 146 53 52 127 229 206 178 257 183 203 185 220 191 201 155 172 216 175 157 144 155 171 178 180 159 158 153 145 135 137 121 94 77 153 134 57 356 327 332 340 352 335 319 311 315 306 318 329 316 314 325 323 332 333 339 353 355 354 352 353 350 354 357 4 29 25 11 360 2 4 5 8 10 11 12 10 6 1 354 351
167 166 171 192 211 200 178 146 182 217 201 185 174 144 177 215 176 173 139 224 178 174 146 179 167 164 162 192 175 167 183 174 167 163 161 169 195 191 236 201 181 140 110 281 340 339 337 346 345 341 272 315 311 324 317 310 330 330 336 331 332 334 349 2 358 0 1 1 7 5 10 26 28 19 12 8 10 10 9 9 8 9 7 3 360 358 353
144 200 212 245 217 174 183 184 197 190 202 167 170 153 172 175 242 164 130 169 168 168 153 156 151 156 186 179 186 158 190 179 170 169 174 171 171 176 180 161 230 155 140 242 52 347 327 334 357 354 339 284 311 326 319 330 335 340 338 340 343 341 346 4 2 360 4 7 12 11 11 13 23 21 16 14 17 13 13 13 13 12 5 359 359 349 347
294 261 202 209 123 167 196 230 190 162 182 206 147 151 164 238 188 165 155 182 168 172 152 132 177 171 188 178 206 191 180 177 196 181 160 182 199 179 156 123 227 199 155 235 97 326 317 325 334 1 4 342 299 310 313 337 345 353 359 353 350 344 336 348 0 358 9 7 11 10 8 11 14 21 30 21 23 16 18 19 15 13 4 1 358 351 344
64 286 307 183 200 202 198 192 194 157 151 182 177 151 177 203 186 171 169 166 172 165 159 149 164 179 176 175 187 188 176 175 185 183 160 180 182 173 150 186 170 165 214 344 19 324 306 311 313 332 22 339 298 307 336 357 18 16 14 5 345 347 334 318 333 358 10 9 3 8 5 2 9 12 20 30 25 24 22 19 19 11 5 4 358 354 350
155 227 239 253 268 247 193 159 149 168 184 183 177 177 193 198 181 168 174 147 150 149 149 158 156 176 184 161 187 193 181 180 190 191 182 186 196 216 183 178 162 113 59 338 340 171 313 302 316 325 17 345 323 332 351 1 35 35 17 0 344 341 340 314 306 327 355 352 2 4 0 360 3 4 7 17 28 31 25 21 19 13 4 10 5 355 347
279 308 316 28 47 46 164 193 160 172 174 175 211 213 210 207 157 140 153 173 162 168 170 160 147 156 198 183 176 177 186 184 195 198 199 194 189 174 159 193 153 126 174 353 328 77 304 300 319 330 347 337 330 347 344 346 41 53 16 353 345 349 343 340 334 320 319 330 334 347 346 353 354 342 345 351 7 30 21 17 16 18 7 358 354 344 345
307 230 233 172 134 213 229 204 186 182 190 176 192 208 206 206 148 155 153 214 196 168 155 157 152 163 193 203 163 177 185 186 199 206 203 205 202 193 184 162 173 158 185 142 286 102 266 281 318 337 336 332 320 339 353 356 36 55 17 -0 352 345 340 343 341 342 341 339 329 330 342 343 348 350 334 191 233 341 318 334 8 9 27 19 346 349 355
256 247 244 203 172 172 190 184 192 182 180 171 177 197 192 212 191 157 151 151 114 145 179 172 149 158 160 195 175 164 188 215 202 189 179 187 209 182 162 149 174 144 233 136 259 104 291 300 302 307 320 327 318 334 357 4 49 63 23 8 341 335 340 334 335 341 342 349 344 340 337 344 346 349 346 352 221 210 225 264 316 352 10 10 5 5 13
253 226 214 175 145 168 210 205 187 192 190 169 182 182 176 158 155 159 161 162 151 159 144 177 157 155 165 176 158 174 206 211 188 196 197 191 198 174 171 165 184 189 226 237 219 188 245 281 265 258 42 317 316 316 344 7 43 56 11 32 326 314 317 312 327 342 340 345 350 358 349 349 357 356 358 353 348 337 238 243 285 322 349 6 6 7 7
239 213 184 196 182 186 187 188 196 191 184 164 151 157 154 144 162 154 146 162 153 145 156 169 197 167 159 185 168 172 182 205 192 183 195 202 217 158 183 182 193 187 207 215 216 230 185 286 289 299 31 326 311 334 342 1 15 32 348 315 314 316 319 320 320 341 347 344 344 357 358 352 353 360 3 1 3 344 344 311 265 293 332 4 5 4 12
237 218 198 186 170 170 135 64 44 152 163 147 122 157 172 152 155 144 153 155 166 169 162 170 181 216 171 172 192 187 159 181 196 186 186 214 236 191 183 195 202 203 210 206 193 223 202 248 247 189 348 317 302 309 15 11 11 36 355 327 301 302 311 313 310 314 341 329 336 342 351 351 345 353 350 355 355 348 345 354 359 347 354 0 1 6 11
256 215 138 84 211 249 168 158 200 205 176 164 146 165 171 159 152 154 165 169 174 174 168 179 181 188 200 190 181 179 174 197 178 194 201 207 219 216 203 195 198 200 208 208 206 225 204 222 236 147 224 260 277 266 107 31 29 21 4 341 333 325 323 328 315 283 287 310 320 331 348 350 337 343 340 341 355 11 15 18 5 359 349 347 352 1 6
268 226 172 167 202 196 205 220 174 177 172 154 149 156 173 121 110 126 147 159 181 208 203 176 160 161 188 222 167 186 150 165 191 211 214 218 226 214 195 195 200 202 209 203 210 217 209 212 218 192 247 254 277 282 124 134 65 16 359 345 329 324 323 326 323 326 317 282 299 315 343 328 315 322 332 350 1 5 17 25 15 358 349 348 332 328 352
265 233 231 202 193 192 166 158 137 154 176 180 154 149 137 133 151 158 177 187 191 189 211 232 205 179 180 197 175 181 181 192 205 220 222 225 222 202 191 192 203 203 211 206 219 206 212 215 218 221 266 260 259 274 144 116 90 5 336 339 339 328 315 325 328 331 337 333 308 302 325 345 341 341 342 351 355 11 24 29 8 353 350 338 346 358 10
252 228 225 226 142 131 127 144 166 175 166 163 156 168 166 157 167 185 194 202 192 191 213 201 185 208 192 177 193 175 178 197 209 217 221 217 209 190 186 196 192 224 240 182 213 217 217 225 219 222 247 256 237 246 163 111 86 109 324 320 333 324 306 313 328 331 337 355 336 328 332 -0 341 343 341 349 353 7 24 19 18 10 1 1 7 10 13
262 242 210 162 155 158 153 171 175 181 174 174 160 161 178 172 178 186 205 205 193 203 206 190 197 197 190 191 201 197 196 197 205 213 215 218 203 187 181 163 172 214 226 228 217 212 220 224 214 225 239 227 220 205 151 132 12 -0 357 343 326 327 329 330 339 316 274 339 7 353 345 359 18 346 333 346 352 3 17 22 24 7 353 -0 8 9 353
265 256 189 169 171 172 177 180 169 178 189 179 153 163 179 181 188 195 197 183 191 189 189 193 189 191 201 207 198 196 203 212 203 215 221 206 200 193 182 187 200 208 214 214 213 208 216 214 221 235 225 211 211 186 153 153 165 4 323 317 322 338 345 347 352 324 283 331 354 6 355 348 357 349 334 4 344 340 13 31 18 10 348 2 12 359 338
242 256 208 183 179 179 187 198 180 189 178 177 186 184 181 190 193 194 193 184 175 183 178 188 195 198 200 200 196 199 200 185 189 167 173 197 202 201 201 201 204 205 211 212 208 206 194 203 221 220 209 207 198 184 167 168 178 199 271 307 308 318 332 324 330 298 337 357 346 329 328 355 331 16 329 285 307 326 18 29 14 11 5 341 344 334 354
199 196 196 189 175 184 192 206 204 183 190 191 190 179 179 195 195 191 181 173 161 165 181 191 193 195 191 193 199 201 134 118 131 179 205 199 204 218 217 198 196 201 211 208 209 204 207 216 203 190 205 199 197 187 186 180 185 195 217 260 294 318 336 316 327 289 8 346 319 301 329 356 0 358 312 297 310 334 8 26 15 355 6 341 319 309 357
217 220 203 201 199 187 182 182 190 186 175 189 199 198 196 186 180 182 170 160 165 181 185 177 182 187 186 188 197 192 168 181 194 195 201 202 200 206 203 196 210 207 231 236 222 230 220 197 188 188 197 197 186 196 196 192 184 171 219 241 248 257 277 307 305 258 235 253 251 313 333 339 334 325 301 251 180 310 344 14 33 5 338 335 313 321 344
214 223 211 200 202 200 189 184 182 170 168 178 183 175 177 179 157 140 166 184 186 175 170 180 183 174 176 183 193 198 202 207 198 200 196 198 199 186 170 178 184 199 217 259 265 224 190 183 187 184 186 202 200 215 219 209 186 187 220 230 234 261 286 312 291 280 271 252 275 268 259 278 302 305 288 274 164 36 349 348 30 11 316 267 279 311 319
210 207 201 197 200 195 190 179 164 156 161 165 166 166 168 167 173 181 176 177 182 188 186 174 167 178 196 196 191 195 195 194 198 202 208 204 177 173 186 189 194 204 214 229 252 201 181 185 190 189 187 203 210 230 224 197 192 197 203 223 218 215 253 305 315 302 280 268 241 261 276 313 339 336 309 260 224 233 260 306 346 44 317 276 280 290 301
225 202 195 195 193 191 191 178 169 152 146 145 158 160 164 172 177 170 178 184 191 197 186 176 186 199 202 197 190 194 208 202 198 204 208 201 183 185 198 187 207 201 205 221 216 181 193 191 187 185 199 202 214 221 216 207 201 192 203 216 222 223 227 236 282 290 271 262 245 226 242 266 281 288 283 268 245 226 223 247 270 292 277 279 250 243 260
197 299 237 203 181 185 176 165 165 160 156 156 164 164 173 164 171 164 172 188 205 193 175 199 204 198 205 196 210 221 223 220 211 201 195 193 188 184 201 201 203 197 206 209 174 186 188 183 182 191 201 211 213 218 210 215 212 209 215 215 216 225 228 228 236 266 266 256 244 233 232 247 235 231 248 241 243 245 237 236 228 241 229 213 247 244 247
172 178 188 177 189 187 165 168 170 166 168 156 155 164 174 152 156 151 155 160 182 171 185 191 180 204 222 222 223 226 230 223 214 204 206 193 179 207 234 264 253 245 236 189 183 190 187 183 182 195 207 216 204 203 201 203 203 213 223 220 227 227 231 234 238 252 265 262 261 254 242 244 242 228 226 229 236 223 214 229 245 236 250 245 210 242 233
193 159 144 179 192 192 173 164 177 172 158 151 151 154 153 146 146 135 151 160 179 168 169 170 179 207 215 217 218 226 227 224 217 216 192 153 176 201 208 232 241 235 207 201 200 190 183 183 190 196 217 211 213 198 197 199 200 209 218 223 227 227 251 253 257 256 265 273 271 257 245 242 241 234 228 223 227 226 216 219 227 230 210 230 240 230 224
206 165 145 195 201 196 194 167 137 116 135 148 150 151 154 149 147 165 179 176 167 181 181 190 190 196 207 210 217 220 228 228 225 219 185 178 188 184 200 237 234 233 213 204 204 180 180 194 200 207 212 209 209 205 196 188 196 203 214 221 229 230 239 253 263 265 266 263 265 266 260 251 235 235 227 220 228 229 218 216 228 233 236 227 229 222 207
314 153 179 186 184 167 147 139 141 143 145 159 158 156 151 146 142 149 152 161 169 175 192 259 223 231 230 232 224 230 236 233 221 220 217 220 204 184 186 223 229 226 199 187 185 178 188 197 201 216 217 207 208 209 195 192 196 203 211 221 228 233 241 244 251 259 263 271 277 271 262 256 244 237 227 224 224 223 214 207 213 225 225 222 226 226 216
202 168 154 146 146 146 135 126 123 119 122 152 158 136 129 132 143 145 149 143 133 145 146 168 250 235 232 214 201 225 242 239 238 232 223 244 268 271 219 221 233 209 179 170 177 186 194 200 205 218 217 210 211 200 192 196 198 206 216 222 229 231 240 252 261 260 264 265 260 265 263 262 254 242 230 232 232 232 223 218 222 223 225 224 223 219 222
147 148 153 144 140 133 134 136 136 138 143 143 125 117 117 118 119 127 124 117 120 135 159 190 228 237 246 230 218 221 220 214 216 201 204 227 234 268 248 212 199 166 186 181 181 191 202 204 215 218 211 206 210 201 202 198 200 206 218 223 232 234 239 241 254 265 270 267 268 264 264 262 258 252 243 239 233 228 223 220 223 221 219 219 217 220 224
110 115 122 115 111 126 140 135 135 130 125 113 106 116 129 128 128 127 127 129 137 168 196 206 220 229 233 239 249 249 258 252 235 207 210 196 192 222 203 189 201 201 189 184 193 198 215 223 230 242 224 217 207 199 213 211 205 210 219 229 236 236 242 248 256 263 266 271 274 277 277 275 273 263 249 242 237 231 232 227 227 224 214 213 214 217 220
140 135 128 122 126 129 124 127 127 118 118 109 118 133 151 136 133 134 146 151 157 181 208 225 240 250 240 234 234 253 269 273 284 243 222 244 248 246 188 188 202 196 174 195 215 214 210 197 195 201 204 208 191 200 208 207 209 217 223 237 238 243 245 254 256 262 271 272 273 275 280 281 280 276 273 267 259 249 243 231 227 225 220 220 225 226 225
124 128 140 129 118 117 114 113 116 136 149 156 168 152 162 145 136 133 124 117 102 57 26 349 314 305 309 281 179 181 185 175 232 298 272 245 243 225 206 192 209 199 192 197 197 206 195 198 203 208 210 188 181 199 197 209 213 222 229 236 241 245 250 257 263 267 272 277 281 287 294 299 296 288 279 267 262 256 249 240 240 243 238 230 232 229 224
128 130 133 113 111 112 121 142 156 180 209 158 138 156 158 136 127 114 107 86 64 40 20 9 38 41 13 307 57 93 164 178 157 236 244 191 199 187 203 201 199 174 167 178 207 235 222 223 224 223 197 177 189 196 209 215 227 235 242 248 253 259 258 255 261 264 270 274 280 283 287 287 291 296 297 289 278 269 262 254 249 244 245 239 237 236 232
149 127 111 97 106 136 155 126 208 224 189 156 154 163 162 132 119 150 160 163 143 106 118 122 100 102 274 304 328 255 184 151 178 197 219 248 254 233 194 179 183 175 180 182 201 222 229 220 241 231 175 181 186 198 218 229 243 246 254 254 255 253 252 254 262 266 265 271 279 289 297 300 302 302 296 291 289 287 278 265 257 253 250 248 244 240 234
80 89 101 108 100 74 80 133 194 147 165 191 170 175 152 140 148 177 187 186 125 123 156 168 292 276 303 329 329 318 281 252 199 216 230 210 192 191 60 72 69 58 38 6 359 354 8 52 79 95 120 155 182 214 237 249 253 253 248 251 249 249 258 265 261 269 273 272 275 280 281 291 295 300 301 303 300 297 292 292 286 281 267 255 245 240 235
104 102 84 64 57 43 34 36 56 73 89 71 241 189 166 152 156 156 81 71 143 163 160 122 82 299 281 297 308 301 308 317 308 328 20 358 40 61 90 99 85 82 87 89 75 83 94 105 113 123 134 149 181 207 226 231 234 242 248 249 252 256 249 250 253 254 257 262 258 262 271 274 278 288 290 293 293 292 292 288 283 279 274 266 259 257 254